User: anonymous   Login
Location: Carrer del Canonge
(41.4901°N, 2.2931°E)
Time: 06:14:04
(UTC+00:00)
Language:

HJ-1C - Orbit

View from above orbital plane
View from above orbital plane
View from above satellite
View from above satellite

Ground track
Ground track

The orbit data is extracted from the following two-line orbital elements,

1 38997U 12064A   20339.84550442  .00005341  00000-0  12236-3 0  9998
2 38997  97.1387   6.7157 0011337 103.7443  68.9616 15.43120700452051
Epoch (UTC): 04 December 2020 20:17:31
Eccentricity: 0.0011337
inclination: 97.1387°
perigee height: 429 km
apogee height: 444 km
right ascension of ascending node: 6.7157°
argument of perigee: 103.7443°
revolutions per day: 15.43120700
mean anomaly at epoch: 68.9616°
orbit number at epoch: 45205

The dashed part of the orbit path shows where the satellite is in the earth's shadow,  

DLR